Time,TemperatureF,DewpointF,PressureIn,WindDirection,WindDirectionDegrees,WindSpeedMPH,WindSpeedGustMPH,Humidity,HourlyPrecipIn,Conditions,Clouds,dailyrainin,SoftwareType,DateUTC
2013-11-14 00:00:00,37.7,32.1,30.40,North,0,0.0,2.0,80,0.00,,SKC,0.00,VWS V14.00,2013-11-14 06:00:00,
2013-11-14 01:00:00,35.0,31.8,30.39,North,0,0.0,2.0,88,0.00,,SKC,0.00,VWS V14.00,2013-11-14 07:00:00,
2013-11-14 02:00:00,33.1,30.8,30.37,North,0,0.0,0.0,91,0.00,,SKC,0.00,VWS V14.00,2013-11-14 08:00:00,
2013-11-14 03:00:00,32.1,30.3,30.36,North,0,0.0,0.0,93,0.00,,SKC,0.00,VWS V14.00,2013-11-14 09:00:00,
2013-11-14 04:00:00,32.2,30.4,30.35,North,0,0.0,0.0,93,0.00,,SKC,0.00,VWS V14.00,2013-11-14 10:00:00,
2013-11-14 05:00:00,32.0,30.2,30.34,North,0,0.0,2.0,93,0.00,,SKC,0.00,VWS V14.00,2013-11-14 11:00:00,
2013-11-14 06:00:00,32.1,30.3,30.34,North,0,0.0,0.0,93,0.00,,SKC,0.00,VWS V14.00,2013-11-14 12:00:00,
2013-11-14 07:00:00,32.1,30.3,30.34,North,0,0.0,0.0,93,0.00,,SKC,0.00,VWS V14.00,2013-11-14 13:00:00,
2013-11-14 08:00:00,34.8,31.3,30.35,North,0,1.0,4.0,87,0.00,,SKC,0.00,VWS V14.00,2013-11-14 14:00:00,
2013-11-14 09:00:00,42.0,31.5,30.34,ESE,112,2.0,8.0,66,0.00,,SKC,0.00,VWS V14.00,2013-11-14 15:00:00,
2013-11-14 10:00:00,48.8,36.0,30.33,East,90,2.0,8.0,61,0.00,,SKC,0.00,VWS V14.00,2013-11-14 16:00:00,
2013-11-14 11:00:00,52.4,38.1,30.32,East,90,2.0,6.0,58,0.00,,SKC,0.00,VWS V14.00,2013-11-14 17:00:00,
2013-11-14 12:00:00,56.2,41.6,30.26,ENE,68,2.0,8.0,58,0.00,,SKC,0.00,VWS V14.00,2013-11-14 18:00:00,
2013-11-14 13:00:00,59.9,44.2,30.22,ENE,68,2.0,8.0,56,0.00,,SKC,0.00,VWS V14.00,2013-11-14 19:00:00,
2013-11-14 14:00:00,63.4,46.5,30.20,ESE,112,2.0,7.0,54,0.00,,SKC,0.00,VWS V14.00,2013-11-14 20:00:00,
2013-11-14 15:00:00,64.2,48.2,30.18,East,90,1.0,7.0,56,0.00,,SKC,0.00,VWS V14.00,2013-11-14 21:00:00,
2013-11-14 16:00:00,64.8,48.3,30.16,SSE,158,1.0,6.0,55,0.00,,SKC,0.00,VWS V14.00,2013-11-14 22:00:00,
2013-11-14 17:00:00,62.9,51.8,30.15,SE,135,0.0,5.0,67,0.00,,SKC,0.00,VWS V14.00,2013-11-14 23:00:00,
2013-11-14 18:00:00,58.6,51.4,30.15,SE,135,0.0,5.0,77,0.00,,SKC,0.00,VWS V14.00,2013-11-15 00:00:00,
2013-11-14 19:00:00,54.9,49.8,30.14,SE,135,0.0,0.0,83,0.00,,SKC,0.00,VWS V14.00,2013-11-15 01:00:00,
2013-11-14 20:00:00,53.5,49.4,30.15,SE,135,0.0,2.0,86,0.00,,SKC,0.00,VWS V14.00,2013-11-15 02:00:00,
2013-11-14 21:00:00,55.2,50.1,30.15,SE,135,2.0,9.0,83,0.00,,SKC,0.00,VWS V14.00,2013-11-15 03:00:00,
2013-11-14 22:00:00,54.9,50.8,30.12,ESE,112,0.0,5.0,86,0.00,,SKC,0.00,VWS V14.00,2013-11-15 04:00:00,
2013-11-14 23:00:00,55.0,50.6,30.11,ESE,112,0.0,4.0,85,0.00,,SKC,0.00,VWS V14.00,2013-11-15 05:00:00,